Date,TemperatureHighF,TemperatureAvgF,TemperatureLowF,DewpointHighF,DewpointAvgF,DewpointLowF,HumidityHigh,HumidityAvg,HumidityLow,PressureMaxIn,PressureMinIn,WindSpeedMaxMPH,WindSpeedAvgMPH,GustSpeedMaxMPH,PrecipitationSumIn
2013-9-1,84,74,69,77,72,68,96,92,78,29.93,29.85,3,0,6,0.01
2013-9-2,84,73,69,74,70,68,96,91,69,29.98,29.87,2,0,7,0.19
2013-9-3,90,78,71,75,72,69,95,83,53,29.98,29.87,5,0,7,0.01
2013-9-4,91,76,65,72,67,63,96,79,41,30.09,29.96,1,0,7,0.00
2013-9-5,90,75,65,71,68,64,96,79,46,30.13,30.05,4,0,5,0.00
2013-9-6,88,74,65,72,68,63,96,82,56,30.15,30.05,1,0,5,0.00
2013-9-7,89,73,64,71,66,62,96,81,46,30.13,30.00,2,0,5,0.00
2013-9-8,90,75,64,72,68,62,96,80,49,30.03,29.94,5,0,8,0.00
2013-9-9,89,75,67,74,70,66,95,83,55,30.11,29.98,2,0,5,0.00
2013-9-10,89,75,67,74,70,66,95,84,60,30.21,30.11,2,0,4,0.00
2013-9-11,90,75,66,73,68,64,96,79,46,30.22,30.09,1,0,7,0.00
2013-9-12,91,76,65,71,68,64,95,76,49,30.11,29.91,3,0,8,0.00
2013-9-13,87,75,64,69,64,55,94,71,46,29.92,29.81,7,1,12,0.00
2013-9-14,82,67,53,61,57,52,95,73,45,30.08,29.90,3,0,5,0.00
2013-9-15,81,70,60,72,66,59,95,86,67,30.17,30.07,1,0,3,0.00
2013-9-16,88,74,65,71,65,59,96,76,38,30.14,30.05,6,0,7,0.00
2013-9-17,80,70,65,65,63,61,91,78,58,30.23,30.10,2,0,7,0.00
2013-9-18,76,68,64,66,62,59,94,80,66,30.24,30.13,4,0,4,0.00
2013-9-19,87,70,59,67,62,58,96,80,47,30.20,30.07,3,0,9,0.00
2013-9-20,87,72,61,68,64,60,96,78,49,30.09,29.91,5,0,7,0.00
2013-9-21,71,68,64,69,66,63,95,93,86,29.93,29.72,3,0,8,1.19
2013-9-22,82,66,56,67,61,55,96,84,50,29.89,29.77,6,0,7,0.01
2013-9-23,80,66,57,67,61,55,96,84,58,30.02,29.89,1,0,5,0.00
2013-9-24,70,66,64,65,63,61,95,90,81,30.03,29.89,1,0,4,0.10
2013-9-25,65,64,62,64,63,61,96,96,95,29.90,29.84,0,0,3,1.55
2013-9-26,80,67,58,68,63,57,97,87,62,30.02,29.89,1,0,4,0.00
2013-9-27,80,67,56,65,60,55,96,81,48,30.14,30.02,2,0,5,0.00
2013-9-28,77,63,55,62,58,54,96,83,53,30.23,30.12,3,0,6,0.00
2013-9-29,74,62,53,61,56,52,96,84,56,30.17,30.05,6,0,6,0.00
2013-9-30,75,63,54,63,58,53,96,86,63,30.11,30.01,2,0,6,0.00